Regional Weather Roundup
Issued by NWS

Home | Current Version | Previous Version | Graphics & Text | Print | Product List | Glossary On
Versions: 1 2 3 4 5 6 7 8 9 10 11 12 13 14 15 16 17 18 19 20 21 22 23 24 25 26 27 28
000
ASUS45 KBOI 271510
RWRID

IDAHO REGIONAL WEATHER ROUNDUP
NATIONAL WEATHER SERVICE BOISE ID
800 AM MST MON FEB 27 2017

NOTE: "FAIR" INDICATES FEW OR NO CLOUDS BELOW 12000 FEET
WITH NO SIGNIFICANT WEATHER AND/OR OBSTRUCTIONS TO VISIBILITY

IDZ012-014-271600-
SOUTHWEST IDAHO


CITY           SKY/WX    TMP DP  RH WIND       PRES   REMARKS
BOISE          CLOUDY    29  26  89 CALM      29.70R
CALDWELL       MOCLDY    27  26  96 S3        29.73R
MOUNTAIN HOME  MOCLDY    26  26 100 VRB2      29.70R
$$

IDZ016-017-271600-
SOUTHCENTRAL IDAHO


CITY           SKY/WX    TMP DP  RH WIND       PRES   REMARKS
BURLEY         FOG       26  23  88 E5        29.60R VSB 3/4 WCI  20
JEROME           N/A    N/A N/A N/A MISG      29.63R
TWIN FALLS     SNOW      24  22  91 SW15      29.64R VSB 1/4 WCI  11
$$

IDZ019>023-271600-
SOUTHEAST IDAHO


CITY           SKY/WX    TMP DP  RH WIND       PRES   REMARKS
IDAHO FALLS    CLOUDY    21  21 100 CALM      29.62R
POCATELLO      FLURRIES  24  21  88 NE6       29.63R WCI  17
REXBURG        CLOUDY    21  20  96 SW7       29.60S WCI  12
$$

IDZ006-010-011-018-031-032-271600-
CENTRAL IDAHO MOUNTAINS


CITY           SKY/WX    TMP DP  RH WIND       PRES   REMARKS
MCCALL         LGT SNOW  21  17  84 S7        29.54R FOG     WCI  12
HAILEY         CLOUDY    10   3  72 NW12      29.59S WCI  -4
STANLEY          N/A      6   1  80 CALM      29.53R
SALMON         CLOUDY    21  12  68 CALM      29.59R
CHALLIS        MOCLDY    14   8  77 CALM      29.57R
$$

IDZ002-004-006-007-026-271600-
NORTHERN IDAHO


CITY           SKY/WX    TMP DP  RH WIND       PRES   REMARKS
LEWISTON       CLOUDY    30  28  92 S3        29.70R
LOWELL           N/A     31  28  89 CALM      29.70R
COEUR D`ALENE  CLOUDY    27  25  92 W5        29.63S WCI  22
MULLAN PASS    LGT SNOW  17  13  84 SW5       29.43S FOG     WCI  10
$$




USA.gov is the U.S. government's official web portal to all federal, state and local government web resources and services.